COSMOS 1275 DEB

Satellite information

Favourite Embed

Satellite Type and Status

DEBRISIN ORBIT

Key statistics

Satellite COSMOS 1275 DEB at a glance.

Uptime

16044

Days in orbit

Revolutions

≈ 14.1

Per day

Orbit

LEO

Low Earth Orbit

Inclination

82.9

Latest

Satellite identification and parameters

Extended collection of information and parameters for COSMOS 1275 DEB.

Object identification

Identified? True

Debris? True

Object name: COSMOS 1275 DEB

International designator: 1981-053UJ

Object number (NORAD): 42218

Object ID (CCSDS): 42218

Country: COMMONWEALTH OF INDEPENDENT STATES (CIS)

Current information (Y/N): Y

RCS size: SMALL

Orbital parameters

Period: 102.402 minutes

Inclination: 82.8732 deg

SMA: 7250.48 km

Apoapsis: 916.384 km

Periapsis: 828.307 km

RAAN: 230.307 deg

Eccentricy: 0.0060739

Argument of periapsis: 173.1473 deg

Mean anomaly: 187.0545 deg

Mean motion: 14.06217789 rev/day

Mean motion (dot): 0.00004127 rev/day2

B* drag term: 0.0024577 1/REarth

Two-line elements (TLE)

Creation date: May 6, 2025, 10:26 p.m.

Reference frame: TEME

Reference center: EARTH

Epoch: May 4, 2025, 12:38 a.m. UTC

TLE line 0: 0 COSMOS 1275 DEB

TLE line 1: 1 42218U 81053UJ 25124.02702134 .00004127 00000-0 24577-2 0 9998

TLE line 2: 2 42218 82.8732 230.3070 0060739 173.1473 187.0545 14.06217789140487

Live tracking on map

Real-time ground track for satellite COSMOS 1275 DEB.

In-orbit conjunctions

A list of the most updated potential collisions computed for object COSMOS 1275 DEB.

Target Orbit TCA Probability of collision Miss distance Type
FENGYUN 1C DEB SSO 2025-03-21 04:09:43 0.0001281469 215.0 (m) DEBRIS
COSMOS 1299 LEO 2025-01-15 14:41:33 0.0003978525 323.0 (m) PAYLOAD
NOAA 11 SSO 2024-09-24 07:47:10 0.0002544116 698.0 (m) PAYLOAD
CZ-6A DEB SSO 2024-09-02 20:57:59 0.0001143215 121.0 (m) DEBRIS

Associated space launch

Navigation satellite providing location information for the Tsiklon-B navigation system

COSMOS 1275 DEB was lifted into orbit during the mission ‘Kosmos-3M | Parus 27’, on board a Kosmos-3M space rocket.

The launch took place on June 4, 1981, 3:41 p.m. from 132/2.

For more information about the launch, click the button.

Launch to space Kosmos-3M | Parus 27
Kosmos-3M | Parus 27

Agency: N/A

Status: Launch Successful

Launch date: June 4, 1981, 3:41 p.m. UTC

Rocket: Kosmos-3M

Launch pad: 132/2

Location: Plesetsk Cosmodrome, Russian Federation

...

Latest news about this satellite

There are no fresh news available about this satellite. Check back as we update our databases every day.


Newsletter sign-up

Weekly statistics, charts and insights to help you stay on top of the space industry.